Tracking 17636 objects as of 30-April-2016
HD Live streaming from Space Station
objects crossing your sky now

METEOSAT 3

Track METEOSAT 3 now!
METEOSAT 3 is classified as:


NORAD ID: 19215
Int'l Code: 1988-051A
Perigee: 36,733.4 km
Apogee: 36,771.3 km
Inclination: 16.0 °
Period: 1,485.3 minutes
Semi major axis: 43123 km
RCS: 4.1367 m2 (large)
Launch date: June 15, 1988
Source: European Space Agency (ESA)
Launch site: FRENCH GUIANA (FRGUI)
Your satellite tracking list
Your tracking list is empty





NASA's NSSDC Master Catalog

Two Line Element Set (TLE):
1 19215U 88051A   16120.52327603 -.00000087  00000-0  00000+0 0  9993
2 19215  15.9703  13.0076 0004399 272.7796 346.7876  0.96947093 87527
Source of the keplerian elements: AFSPC

N2YO: 294